AAL598 KMDT-KCLT

Flight info

Callsign AAL598
Flight time 1h 9m
Altitude 34000
Route VINNY EMI GVE AIROW CHSLY6
Aircraft B737/M-SDE2E3FGHIRWXY/LB1

Departure

Time 2026-05-07 03:39
Airport Harrisburg International Airport (KMDT)

Arrival

Time 2026-05-07 04:48
Airport Charlotte Douglas International Airport (KCLT)
Time Latitude Longitude Altitude Speed Heading
2026-05-07 03:29 40.19492 -76.75544 312 ft 0 kts 35°
2026-05-07 03:33 40.19487 -76.75549 331 ft 3 kts 35°
2026-05-07 03:33 40.19472 -76.75563 307 ft 3 kts 35°
2026-05-07 03:33 40.19457 -76.75576 312 ft 3 kts 35°
2026-05-07 03:34 40.19443 -76.75589 312 ft 3 kts 35°
2026-05-07 03:34 40.19432 -76.75599 313 ft 0 kts 35°
2026-05-07 03:35 40.19436 -76.75537 311 ft 16 kts 106°
2026-05-07 03:35 40.19387 -76.75381 313 ft 25 kts 118°
2026-05-07 03:35 40.19340 -76.75266 313 ft 24 kts 122°
2026-05-07 03:36 40.19293 -76.75189 313 ft 23 kts 129°
2026-05-07 03:36 40.19215 -76.75063 312 ft 22 kts 129°
2026-05-07 03:36 40.19124 -76.74961 312 ft 15 kts 149°
2026-05-07 03:37 40.19029 -76.74914 313 ft 15 kts 181°
2026-05-07 03:37 40.18922 -76.74880 313 ft 17 kts 138°
2026-05-07 03:37 40.18859 -76.74755 314 ft 16 kts 123°
2026-05-07 03:37 40.18781 -76.74663 314 ft 17 kts 180°
2026-05-07 03:38 40.18740 -76.74763 314 ft 15 kts 293°
2026-05-07 03:38 40.18809 -76.74945 312 ft 50 kts 297°
2026-05-07 03:38 40.19109 -76.75701 314 ft 133 kts 298°
2026-05-07 03:38 40.19618 -76.77039 480 ft 188 kts 298°
2026-05-07 03:39 40.20187 -76.78660 1231 ft 200 kts 289°
2026-05-07 03:39 40.20391 -76.80510 1992 ft 216 kts 278°
2026-05-07 03:39 40.20327 -76.82478 2883 ft 221 kts 253°
2026-05-07 03:39 40.19337 -76.83990 3863 ft 229 kts 213°
2026-05-07 03:40 40.17755 -76.84425 4843 ft 241 kts 187°
2026-05-07 03:40 40.16009 -76.84124 5492 ft 265 kts 172°
2026-05-07 03:40 40.14246 -76.83256 6528 ft 273 kts 165°
2026-05-07 03:40 40.12512 -76.82229 7631 ft 274 kts 168°
2026-05-07 03:41 40.10702 -76.81918 8580 ft 255 kts 199°
2026-05-07 03:41 40.08966 -76.82380 9686 ft 256 kts 201°
2026-05-07 03:41 40.07201 -76.82881 10490 ft 267 kts 201°
2026-05-07 03:41 40.05291 -76.83430 10739 ft 296 kts 201°
2026-05-07 03:42 40.03180 -76.84023 11029 ft 322 kts 199°
2026-05-07 03:42 40.00940 -76.84628 11722 ft 333 kts 199°
2026-05-07 03:42 39.98654 -76.85230 12593 ft 338 kts 199°
2026-05-07 03:42 39.96331 -76.85835 13464 ft 343 kts 199°
2026-05-07 03:43 39.93968 -76.86447 14230 ft 349 kts 199°
2026-05-07 03:43 39.91564 -76.87070 15007 ft 354 kts 199°
2026-05-07 03:43 39.89172 -76.87687 15843 ft 357 kts 200°
2026-05-07 03:43 39.86717 -76.88322 16583 ft 363 kts 200°
2026-05-07 03:44 39.84216 -76.88971 17318 ft 369 kts 200°
2026-05-07 03:44 39.81687 -76.89627 18059 ft 374 kts 200°
2026-05-07 03:44 39.79114 -76.90292 18734 ft 378 kts 200°
2026-05-07 03:44 39.76529 -76.90955 19505 ft 378 kts 201°
2026-05-07 03:45 39.73948 -76.91618 20302 ft 378 kts 201°
2026-05-07 03:45 39.71358 -76.92288 20953 ft 381 kts 202°
2026-05-07 03:45 39.68747 -76.92960 21665 ft 383 kts 202°
2026-05-07 03:45 39.66118 -76.93637 22306 ft 386 kts 203°
2026-05-07 03:46 39.63470 -76.94318 22959 ft 389 kts 203°
2026-05-07 03:46 39.60811 -76.95001 23584 ft 391 kts 204°
2026-05-07 03:46 39.58133 -76.95689 24089 ft 394 kts 204°
2026-05-07 03:46 39.55435 -76.96382 24582 ft 396 kts 204°
2026-05-07 03:47 39.52719 -76.97081 25043 ft 399 kts 205°
2026-05-07 03:47 39.50077 -76.98038 25433 ft 391 kts 212°
2026-05-07 03:47 39.47607 -76.99419 25866 ft 383 kts 219°
2026-05-07 03:47 39.45343 -77.01184 26351 ft 378 kts 223°
2026-05-07 03:48 39.43115 -77.03009 26852 ft 380 kts 223°
2026-05-07 03:48 39.40896 -77.04831 27292 ft 382 kts 223°
2026-05-07 03:48 39.39071 -77.06326 27651 ft 384 kts 223°
2026-05-07 03:48 39.37645 -77.07490 27917 ft 385 kts 223°
2026-05-07 03:49 39.35201 -77.09480 28358 ft 388 kts 223°
2026-05-07 03:49 39.32941 -77.11313 28757 ft 390 kts 223°
2026-05-07 03:49 39.30636 -77.13179 29103 ft 393 kts 223°
2026-05-07 03:49 39.28313 -77.15057 29428 ft 396 kts 223°
2026-05-07 03:50 39.25972 -77.16944 29941 ft 395 kts 223°
2026-05-07 03:50 39.23659 -77.18800 30542 ft 389 kts 223°
2026-05-07 03:50 39.21373 -77.20632 31134 ft 385 kts 224°
2026-05-07 03:50 39.19102 -77.22455 31576 ft 384 kts 224°
2026-05-07 03:51 39.16840 -77.24273 32101 ft 381 kts 224°
2026-05-07 03:51 39.14604 -77.26065 32756 ft 375 kts 224°
2026-05-07 03:51 39.12396 -77.27835 33239 ft 374 kts 224°
2026-05-07 03:51 39.10188 -77.29612 33459 ft 376 kts 224°
2026-05-07 03:52 39.07951 -77.31416 33582 ft 382 kts 224°
2026-05-07 03:52 39.05685 -77.33239 33845 ft 384 kts 224°
2026-05-07 03:52 39.03440 -77.35039 33988 ft 387 kts 224°
2026-05-07 03:53 38.98871 -77.38690 33996 ft 386 kts 224°
2026-05-07 03:53 38.94343 -77.42293 34009 ft 381 kts 224°
2026-05-07 03:54 38.89844 -77.45877 33981 ft 380 kts 224°
2026-05-07 03:54 38.85348 -77.49457 33998 ft 380 kts 224°
2026-05-07 03:55 38.80859 -77.53026 33989 ft 380 kts 224°
2026-05-07 03:55 38.76360 -77.56597 34016 ft 381 kts 224°
2026-05-07 03:56 38.71847 -77.60173 34022 ft 382 kts 224°
2026-05-07 03:56 38.67537 -77.63582 33991 ft 382 kts 224°
2026-05-07 03:57 38.63046 -77.67130 34001 ft 384 kts 224°
2026-05-07 03:57 38.58505 -77.70732 34014 ft 382 kts 226°
2026-05-07 03:57 38.56457 -77.72807 34006 ft 371 kts 233°
2026-05-07 03:58 38.54569 -77.75057 34010 ft 372 kts 233°
2026-05-07 03:58 38.50755 -77.79549 34013 ft 374 kts 232°
2026-05-07 03:59 38.46933 -77.84011 33986 ft 375 kts 233°
2026-05-07 03:59 38.43070 -77.88507 34001 ft 377 kts 232°
2026-05-07 04:00 38.39187 -77.93018 33997 ft 378 kts 232°
2026-05-07 04:00 38.35287 -77.97538 34008 ft 379 kts 232°
2026-05-07 04:01 38.31390 -78.02047 34003 ft 378 kts 232°
2026-05-07 04:01 38.27497 -78.06546 33959 ft 378 kts 232°
2026-05-07 04:02 38.23607 -78.11036 33989 ft 378 kts 232°
2026-05-07 04:02 38.19717 -78.15521 34000 ft 377 kts 232°
2026-05-07 04:03 38.15821 -78.20005 34002 ft 379 kts 232°
2026-05-07 04:03 38.11907 -78.24504 33999 ft 379 kts 232°
2026-05-07 04:04 38.07992 -78.28994 33995 ft 379 kts 232°
2026-05-07 04:04 38.04079 -78.33476 34011 ft 379 kts 232°
2026-05-07 04:05 38.00180 -78.37937 34013 ft 380 kts 232°
2026-05-07 04:05 37.96246 -78.42430 34001 ft 381 kts 232°
2026-05-07 04:06 37.92300 -78.46932 34003 ft 382 kts 232°
2026-05-07 04:06 37.88984 -78.50707 34010 ft 383 kts 232°
2026-05-07 04:07 37.85916 -78.54196 34004 ft 383 kts 232°
2026-05-07 04:07 37.82171 -78.58450 34014 ft 383 kts 232°
2026-05-07 04:08 37.78233 -78.62917 34006 ft 382 kts 232°
2026-05-07 04:08 37.74269 -78.67405 34015 ft 382 kts 232°
2026-05-07 04:09 37.70550 -78.71612 34018 ft 381 kts 232°
2026-05-07 04:09 37.66605 -78.76066 34020 ft 380 kts 232°
2026-05-07 04:10 37.62830 -78.80323 34016 ft 379 kts 232°
2026-05-07 04:10 37.58896 -78.84755 34024 ft 379 kts 232°
2026-05-07 04:11 37.54964 -78.89178 34035 ft 379 kts 232°
2026-05-07 04:11 37.51024 -78.93603 34047 ft 379 kts 232°
2026-05-07 04:12 37.47080 -78.98025 34050 ft 380 kts 232°
2026-05-07 04:12 37.43155 -79.02419 34032 ft 380 kts 232°
2026-05-07 04:13 37.39203 -79.06838 34067 ft 381 kts 232°
2026-05-07 04:13 37.35235 -79.11268 34060 ft 382 kts 232°
2026-05-07 04:14 37.31258 -79.15701 34061 ft 381 kts 232°
2026-05-07 04:14 37.27285 -79.20124 34069 ft 381 kts 232°
2026-05-07 04:15 37.23234 -79.24464 34040 ft 387 kts 228°
2026-05-07 04:15 37.18563 -79.28642 34030 ft 390 kts 226°
2026-05-07 04:16 37.14382 -79.32318 34046 ft 390 kts 227°
2026-05-07 04:16 37.09744 -79.36462 34043 ft 390 kts 227°
2026-05-07 04:17 37.05591 -79.40191 34045 ft 390 kts 227°
2026-05-07 04:17 37.01175 -79.44145 34067 ft 391 kts 226°
2026-05-07 04:18 36.96660 -79.47980 34027 ft 393 kts 225°
2026-05-07 04:18 36.92121 -79.51778 34035 ft 392 kts 225°
2026-05-07 04:19 36.87599 -79.55583 34038 ft 391 kts 225°
2026-05-07 04:19 36.83093 -79.59380 34048 ft 391 kts 225°
2026-05-07 04:20 36.78584 -79.63170 34048 ft 391 kts 225°
2026-05-07 04:20 36.74070 -79.66953 34040 ft 391 kts 225°
2026-05-07 04:21 36.67288 -79.72625 34085 ft 392 kts 225°
2026-05-07 04:21 36.62756 -79.76411 34089 ft 393 kts 225°
2026-05-07 04:22 36.58231 -79.80187 33957 ft 396 kts 225°
2026-05-07 04:22 36.55903 -79.82134 33146 ft 403 kts 224°
2026-05-07 04:22 36.53565 -79.84078 32280 ft 403 kts 223°
2026-05-07 04:23 36.51233 -79.86015 31416 ft 404 kts 222°
2026-05-07 04:23 36.48888 -79.87963 30521 ft 407 kts 221°
2026-05-07 04:23 36.46539 -79.89913 29805 ft 405 kts 220°
2026-05-07 04:23 36.44203 -79.91848 29041 ft 402 kts 220°
2026-05-07 04:24 36.41889 -79.93764 28367 ft 397 kts 221°
2026-05-07 04:24 36.39610 -79.95651 27717 ft 392 kts 221°
2026-05-07 04:24 36.37355 -79.97520 27170 ft 385 kts 221°
2026-05-07 04:24 36.35175 -79.99317 27051 ft 369 kts 221°
2026-05-07 04:25 36.33074 -80.01051 26818 ft 357 kts 221°
2026-05-07 04:25 36.31019 -80.02753 26473 ft 353 kts 221°
2026-05-07 04:25 36.28940 -80.04479 26178 ft 367 kts 221°
2026-05-07 04:25 36.26796 -80.06256 25816 ft 375 kts 221°
2026-05-07 04:26 36.24614 -80.08053 25459 ft 376 kts 221°
2026-05-07 04:26 36.22445 -80.09833 25095 ft 372 kts 221°
2026-05-07 04:26 36.20293 -80.11598 24749 ft 369 kts 221°
2026-05-07 04:26 36.18162 -80.13347 24392 ft 367 kts 221°
2026-05-07 04:27 36.16042 -80.15089 24047 ft 364 kts 221°
2026-05-07 04:27 36.13964 -80.16796 23715 ft 363 kts 222°
2026-05-07 04:27 36.11865 -80.18524 23328 ft 361 kts 222°
2026-05-07 04:27 36.09776 -80.20237 22912 ft 359 kts 221°
2026-05-07 04:28 36.07702 -80.21938 22572 ft 356 kts 221°
2026-05-07 04:28 36.05639 -80.23628 22229 ft 355 kts 221°
2026-05-07 04:28 36.03581 -80.25316 21910 ft 355 kts 221°
2026-05-07 04:28 36.01519 -80.27005 21572 ft 354 kts 221°
2026-05-07 04:29 35.99473 -80.28676 21239 ft 350 kts 221°
2026-05-07 04:29 35.97469 -80.30309 20906 ft 341 kts 221°
2026-05-07 04:29 35.95517 -80.31900 20596 ft 332 kts 222°
2026-05-07 04:29 35.93599 -80.33467 20286 ft 328 kts 222°
2026-05-07 04:30 35.91703 -80.35019 19986 ft 326 kts 222°
2026-05-07 04:30 35.89812 -80.36565 19686 ft 326 kts 222°
2026-05-07 04:30 35.87941 -80.38092 19383 ft 327 kts 222°
2026-05-07 04:30 35.86054 -80.39628 19069 ft 322 kts 222°
2026-05-07 04:31 35.84204 -80.41127 18778 ft 315 kts 222°
2026-05-07 04:31 35.82391 -80.42590 18490 ft 308 kts 222°
2026-05-07 04:31 35.80606 -80.44007 18197 ft 303 kts 221°
2026-05-07 04:31 35.78850 -80.45394 17869 ft 297 kts 221°
2026-05-07 04:32 35.77120 -80.46761 17581 ft 294 kts 221°
2026-05-07 04:32 35.75401 -80.48123 17304 ft 294 kts 221°
2026-05-07 04:32 35.73684 -80.49484 17026 ft 293 kts 221°
2026-05-07 04:32 35.71970 -80.50840 16762 ft 293 kts 221°
2026-05-07 04:33 35.70247 -80.52204 16408 ft 299 kts 220°
2026-05-07 04:33 35.68448 -80.53628 16089 ft 314 kts 219°
2026-05-07 04:33 35.66577 -80.55061 15756 ft 318 kts 218°
2026-05-07 04:33 35.64691 -80.56483 15416 ft 318 kts 218°
2026-05-07 04:34 35.62805 -80.57903 15079 ft 317 kts 218°
2026-05-07 04:34 35.60950 -80.59303 14758 ft 317 kts 218°
2026-05-07 04:34 35.59076 -80.60721 14457 ft 315 kts 218°
2026-05-07 04:34 35.57219 -80.62127 14180 ft 313 kts 217°
2026-05-07 04:35 35.55371 -80.63526 13907 ft 311 kts 217°
2026-05-07 04:35 35.53534 -80.64913 13606 ft 309 kts 217°
2026-05-07 04:35 35.51702 -80.66280 13305 ft 307 kts 217°
2026-05-07 04:35 35.49881 -80.67637 12998 ft 305 kts 217°
2026-05-07 04:36 35.48067 -80.68988 12703 ft 304 kts 217°
2026-05-07 04:36 35.46260 -80.70334 12401 ft 303 kts 217°
2026-05-07 04:36 35.44463 -80.71671 12099 ft 302 kts 217°
2026-05-07 04:36 35.42672 -80.73004 11784 ft 301 kts 217°
2026-05-07 04:37 35.40897 -80.74323 11372 ft 294 kts 217°
2026-05-07 04:37 35.39180 -80.75595 10953 ft 282 kts 216°
2026-05-07 04:37 35.37533 -80.76817 10576 ft 273 kts 217°
2026-05-07 04:37 35.35930 -80.78010 10197 ft 268 kts 217°
2026-05-07 04:38 35.34351 -80.79184 9818 ft 261 kts 217°
2026-05-07 04:38 35.32812 -80.80326 9410 ft 258 kts 217°
2026-05-07 04:38 35.31280 -80.81464 9016 ft 258 kts 216°
2026-05-07 04:38 35.29745 -80.82603 8613 ft 257 kts 216°
2026-05-07 04:39 35.28101 -80.83502 8202 ft 265 kts 199°
2026-05-07 04:39 35.26231 -80.83648 7833 ft 273 kts 184°
2026-05-07 04:39 35.24335 -80.83495 7450 ft 274 kts 182°
2026-05-07 04:39 35.22435 -80.83195 7060 ft 278 kts 174°
2026-05-07 04:40 35.20559 -80.82627 6695 ft 278 kts 172°
2026-05-07 04:40 35.18712 -80.82032 6300 ft 271 kts 172°
2026-05-07 04:40 35.16941 -80.81447 5897 ft 263 kts 172°
2026-05-07 04:40 35.15198 -80.80856 5497 ft 257 kts 172°
2026-05-07 04:41 35.13498 -80.80289 5111 ft 251 kts 172°
2026-05-07 04:41 35.11835 -80.79739 4710 ft 245 kts 172°
2026-05-07 04:41 35.10207 -80.79201 4311 ft 241 kts 172°
2026-05-07 04:41 35.08613 -80.78690 4039 ft 231 kts 172°
2026-05-07 04:42 35.07106 -80.78207 4000 ft 217 kts 172°
2026-05-07 04:42 35.05688 -80.77745 3951 ft 206 kts 173°
2026-05-07 04:42 35.04352 -80.77831 3769 ft 189 kts 212°
2026-05-07 04:42 35.03563 -80.79034 3679 ft 189 kts 255°
2026-05-07 04:43 35.03434 -80.80663 3678 ft 197 kts 264°
2026-05-07 04:43 35.03830 -80.82269 3619 ft 207 kts 299°
2026-05-07 04:43 35.04742 -80.83624 3610 ft 206 kts 301°
2026-05-07 04:43 35.05386 -80.85136 3609 ft 200 kts 284°
2026-05-07 04:44 35.05914 -80.86710 3604 ft 199 kts 285°
2026-05-07 04:44 35.06445 -80.88225 3595 ft 190 kts 286°
2026-05-07 04:44 35.06977 -80.89711 3322 ft 193 kts 286°
2026-05-07 04:44 35.07516 -80.91200 3068 ft 191 kts 294°
2026-05-07 04:45 35.08571 -80.92202 2915 ft 207 kts 338°
2026-05-07 04:45 35.09999 -80.92442 2689 ft 203 kts 344°
2026-05-07 04:45 35.11378 -80.92649 2439 ft 195 kts 347°
2026-05-07 04:45 35.12675 -80.92770 2226 ft 181 kts 347°
2026-05-07 04:46 35.13891 -80.92874 1959 ft 170 kts 349°
2026-05-07 04:46 35.15026 -80.92973 1729 ft 160 kts 349°
2026-05-07 04:46 35.16102 -80.93066 1538 ft 152 kts 353°
2026-05-07 04:46 35.17159 -80.93160 1351 ft 152 kts 353°
2026-05-07 04:47 35.18201 -80.93254 1212 ft 151 kts 353°
2026-05-07 04:47 35.19250 -80.93340 962 ft 150 kts 353°
2026-05-07 04:47 35.20270 -80.93425 748 ft 140 kts 354°
2026-05-07 04:47 35.21153 -80.93507 734 ft 116 kts 356°
2026-05-07 04:48 35.21680 -80.93553 734 ft 43 kts 356°
2026-05-07 04:48 35.21884 -80.93603 735 ft 18 kts 296°
2026-05-07 04:48 35.21924 -80.93740 732 ft 17 kts 276°
2026-05-07 04:48 35.21872 -80.93862 730 ft 16 kts 234°
2026-05-07 04:49 35.21871 -80.93993 731 ft 16 kts 284°
2026-05-07 04:49 35.21897 -80.94120 731 ft 15 kts 284°
2026-05-07 04:49 35.21895 -80.94196 731 ft 5 kts 250°
2026-05-07 04:49 35.21894 -80.94199 731 ft 0 kts 250°